{"data":{"norad_id":61951,"epoch":"2026-05-24T23:56:08.267424Z","epoch_age_seconds":69296,"freshness":"FRESH","line1":"1 61951U 24209N   26144.99731791  .00174046  00000+0  14080-2 0  9998","line2":"2 61951  53.1573 355.0338 0000818  79.8279 280.2831 15.69769488 88669","mean_motion":15.69769488,"eccentricity":8.18e-5,"inclination_deg":53.1573,"raan_deg":355.0338,"arg_perigee_deg":79.8279,"mean_anomaly_deg":280.2831,"bstar":0.001408,"rev_number":8866,"period_min":91.733213762147,"perigee_km":359.00538058027,"apogee_km":360.10766724078,"semimajor_km":6737.6935239105,"source":"CELESTRAK","updated_at":"2026-05-25T13:38:19.488653Z"}}